Location: Karlsruhe
(49.0131°N, 8.3874°E)
Time: 14:52:20
(UTC+02:00)

ISS - Pass Details

Date: 18 May 2021
Orbit: 419 x 422 km, 51.6° (Epoch: 25 June)

Event Time Altitude Azimuth Distance (km) Brightness Sun altitude
Rises 02:45:02 0° 290° (WNW) 2,376 0.1 -19.0°
Reaches altitude 10° 02:47:10 10° 286° (WNW) 1,509 -1.0 -18.9°
Enters shadow 02:47:45 14° 283° (WNW) 1,274 -1.4 -18.9°
